Location: Naloco
(16.5478°S, 37.1017°E)
Time: 02:18:50
(UTC+00:00)

Cosmos 1500 Rocket - Pass Details

Date: 13 August 2020
Orbit: 604 x 630 km, 82.5° (Epoch: 23 September)

Event Time Altitude Azimuth Distance (km) Brightness Sun altitude
Rises 16:22:24 0° 190° (S) 2,888 7.0 -14.8°
Reaches altitude 10° 16:24:39 10° 193° (SSW) 1,974 6.2 -15.4°
Maximum altitude 16:28:58 63° 273° (W) 683 4.0 -16.4°
Drops below altitude 10° 16:33:13 10° 354° (N) 1,944 6.3 -17.4°
Sets 16:35:26 0° 357° (N) 2,839 7.1 -17.9°
